This is the latest recevied weather packets stored in our database for station/object K4DNM. If no packets are shown the sender has not sent any weather packets the latest 10 day(s).
| Time | Temp. | Humidity | Pressure | Rain* | Wind** | Luminosity | Snow |
|---|---|---|---|---|---|---|---|
| 1778065306 | 15.56° C | 90% | 1013.6 hPa | 0 mm | - | 18 W/m² | - |
| 1778065004 | 15.56° C | 90% | 1013.4 hPa | 0 mm | - | 21 W/m² | - |
| 1778064705 | 15.56° C | 90% | 1013.5 hPa | 0 mm | - | 20 W/m² | - |
| 1778064406 | 15° C | 91% | 1013.4 hPa | 0 mm | - | 17 W/m² | - |
| 1778064106 | 15° C | 92% | 1013.4 hPa | 0 mm | - | 12 W/m² | - |
| 1778063866 | 15° C | 92% | 1013.7 hPa | 0 mm | - | 8 W/m² | - |
| 1778063490 | 15° C | 92% | 1013.8 hPa | 0 mm | - | 6 W/m² | - |
| 1778063190 | 15° C | 92% | 1013.8 hPa | 0 mm | - | 4 W/m² | - |
| 1778062890 | 15° C | 92% | 1013.7 hPa | 0 mm | - | 2 W/m² | - |
| 1778062653 | 15° C | 92% | 1013.6 hPa | 0 mm | - | 2 W/m² | - |
| 1778062290 | 15° C | 92% | 1013.6 hPa | 0 mm | - | 0 W/m² | - |
| 1778061992 | 15° C | 92% | 1013.7 hPa | 0 mm | - | 0 W/m² | - |
| 1778061704 | 15° C | 91% | 1013.7 hPa | 0 mm | - | 0 W/m² | - |
| 1778061441 | 15° C | 91% | 1013.9 hPa | 0 mm | - | 0 W/m² | - |
| 1778061151 | 15° C | 91% | 1013.9 hPa | 0 mm | - | 0 W/m² | - |
| 1778060777 | 15° C | 90% | 1013.9 hPa | 0 mm | - | 0 W/m² | - |
| 1778060477 | 15° C | 90% | 1013.9 hPa | 0 mm | - | 0 W/m² | - |
| 1778060161 | 15° C | 90% | 1013.8 hPa | 0 mm | - | 0 W/m² | - |
| 1778059861 | 15° C | 90% | 1013.8 hPa | 0 mm | - | 0 W/m² | - |
| 1778059563 | 15.56° C | 89% | 1013.8 hPa | 0 mm | - | 0 W/m² | - |
| 1778059324 | 15.56° C | 89% | 1013.7 hPa | 0 mm | - | 0 W/m² | - |
| 1778058964 | 15.56° C | 89% | 1013.8 hPa | 0 mm | - | 0 W/m² | - |
| 1778058654 | 15.56° C | 89% | 1013.7 hPa | 0 mm | - | 0 W/m² | - |
| 1778058412 | 15.56° C | 89% | 1013.6 hPa | 0 mm | - | 0 W/m² | - |
| 1778058108 | 15.56° C | 89% | 1013.7 hPa | 0 mm | - | 0 W/m² | - |
* Rain latest hour (hover to see other rain measurements)
** Current wind speed in m/s (hover to see current wind gust speed)